EW7119 Weather Reports


Display with metric or nautical units.
time (UTC)temp
F
wind
direction
speed
MPH
gust
MPH
rain 1hr
in
rain 24hr
in
rain mn
in
humidity
%
barometer
mb
20260831144606 53 68 1.0 3.0 0.00 0.13 0.00 72 1010.2
20260831143100 52 115 0.0 0.0 0.00 0.13 0.00 76 1010.3
20260831141605 51 116 0.0 0.0 0.00 0.13 0.00 77 1010.1
20260831140002 51 116 0.0 0.0 0.00 0.13 0.00 78 1010.2
20260831134506 50 116 0.0 0.0 0.00 0.13 0.00 78 1010.0
20260831133034 49 116 0.0 0.0 0.00 0.13 0.00 78 1010.0
20260831131554 48 116 0.0 0.0 0.00 0.13 0.00 79 1009.8
20260831130047 48 116 0.0 0.0 0.00 0.13 0.00 79 1009.4
20260831124546 48 116 0.0 0.0 0.00 0.13 0.00 78 1009.2
20260831123053 48 116 0.0 0.0 0.00 0.13 0.00 79 1009.1
20260831121607 48 116 0.0 0.0 0.00 0.13 0.00 77 1008.8
20260831120130 49 116 0.0 0.0 0.00 0.13 0.00 76 1008.9
20260831114611 49 116 0.0 0.0 0.00 0.13 0.00 75 1008.8
20260831113003 48 116 2.0 4.0 0.00 0.13 0.00 78 1008.9
20260831111509 48 138 0.0 0.0 0.00 0.13 0.00 79 1008.8
20260831110151 49 138 0.0 0.0 0.00 0.13 0.00 78 1008.9
20260831104606 48 138 0.0 0.0 0.00 0.13 0.00 80 1008.8
20260831103129 48 138 0.0 0.0 0.00 0.13 0.00 80 1008.8
20260831101554 48 138 0.0 0.0 0.00 0.13 0.00 80 1008.6
20260831100052 48 138 0.0 0.0 0.00 0.13 0.00 80 1008.3
20260831094534 48 138 0.0 0.0 0.00 0.13 0.00 81 1008.2
20260831093048 48 138 0.0 0.0 0.00 0.13 0.00 81 1008.0
20260831091535 48 138 0.0 0.0 0.00 0.13 0.00 82 1007.9
20260831090051 48 138 0.0 0.0 0.00 0.13 0.00 83 1007.7
20260831084547 48 138 0.0 0.0 0.00 0.13 0.00 83 1007.7
20260831083108 48 138 0.0 0.0 0.00 0.13 0.00 83 1007.6
20260831081503 49 138 0.0 0.0 0.00 0.13 0.00 82 1007.6
20260831080057 50 138 0.0 0.0 0.00 0.13 0.00 79 1007.7
20260831074503 50 138 0.0 2.0 0.00 0.13 0.00 81 1007.7
20260831073029 49 138 0.0 7.0 0.00 0.13 0.00 84 1008.0
20260831071543 48 119 1.0 3.0 0.00 0.13 0.00 86 1008.1
20260831070020 48 119 0.0 0.0 0.00 0.13 0.00 86 1008.3
20260831064535 49 119 0.0 0.0 0.00 0.13 0.00 85 1007.8
20260831063046 50 119 0.0 3.0 0.00 0.13 0.00 85 1008.0
20260831061547 50 143 2.0 3.0 0.00 0.13 0.00 86 1008.1
20260831060052 50 144 1.0 3.0 0.00 0.13 0.00 86 1008.5
20260831054552 50 144 0.0 4.0 0.00 0.13 0.13 85 1008.8
20260831053122 50 128 1.0 7.0 0.00 0.13 0.13 87 1008.9
20260831051549 50 131 0.0 6.0 0.01 0.13 0.13 88 1008.8
20260831050104 49 156 1.0 5.0 0.02 0.13 0.13 90 1008.9
20260831044504 49 107 0.0 3.0 0.06 0.13 0.13 89 1008.9
20260831043152 49 103 1.0 10.0 0.09 0.13 0.13 89 1008.5
20260831041617 49 125 2.0 8.0 0.11 0.12 0.12 90 1008.6
20260831040050 50 119 1.0 7.0 0.11 0.11 0.11 89 1008.7
20260831034549 51 207 0.0 0.0 0.07 0.07 0.07 87 1009.6
20260831033108 52 207 0.0 3.0 0.04 0.04 0.04 82 1009.7
20260831031602 55 284 0.0 16.0 0.01 0.01 0.01 75 1009.4
20260831030127 55 60 0.0 0.0 0.00 0.00 0.00 66 1008.0
20260831024600 55 45 0.0 8.0 0.00 0.00 0.00 66 1007.2
20260831023059 55 37 0.0 4.0 0.00 0.00 0.00 68 1007.0
20260831021552 55 29 0.0 0.0 0.00 0.00 0.00 70 1007.1
20260831020100 56 321 0.0 0.0 0.00 0.00 0.00 70 1006.9
20260831014507 57 327 3.0 9.0 0.00 0.00 0.00 67 1006.8
20260831013037 58 101 0.0 0.0 0.00 0.00 0.00 67 1006.5
20260831011506 58 101 0.0 0.0 0.00 0.00 0.00 63 1005.9
20260831010131 58 101 0.0 0.0 0.00 0.00 0.00 64 1005.7
20260831004503 59 101 0.0 0.0 0.00 0.00 0.00 61 1005.7
20260831003111 60 340 0.0 0.0 0.00 0.00 0.00 58 1005.9
20260831001605 60 347 0.0 0.0 0.00 0.00 0.00 59 1006.0
20260831000002 60 317 0.0 0.0 0.00 0.00 0.00 60 1005.9
20260830234631 58 126 0.0 0.0 0.00 0.00 0.00 64 1005.9
20260830233152 57 126 0.0 0.0 0.00 0.00 0.00 65 1005.7
20260830231502 57 121 0.0 0.0 0.00 0.00 0.00 68 1005.9
20260830230122 59 321 0.0 0.0 0.00 0.00 0.00 65 1006.9
20260830224551 60 308 0.0 0.0 0.00 0.03 0.00 57 1006.6
20260830223057 62 296 0.0 5.0 0.00 0.03 0.00 50 1006.0
20260830221557 63 150 0.0 0.0 0.00 0.03 0.00 48 1005.1
20260830220124 62 138 0.0 0.0 0.00 0.03 0.00 50 1004.8
20260830214553 60 137 0.0 10.0 0.00 0.03 0.00 53 1005.0
20260830213107 60 182 0.0 9.0 0.00 0.03 0.00 51 1005.2
20260830211554 59 194 2.0 11.0 0.00 0.03 0.00 54 1005.0
20260830204540 64 167 0.0 0.0 0.00 0.03 0.00 50 1004.5
20260830203046 66 184 0.0 0.0 0.00 0.03 0.00 48 1004.3
20260830201549 66 165 0.0 7.0 0.00 0.03 0.00 47 1004.2
20260830200050 66 142 0.0 8.0 0.00 0.03 0.00 48 1004.2
20260830194549 66 182 0.0 0.0 0.00 0.03 0.00 49 1004.3
20260830193052 65 185 0.0 0.0 0.00 0.03 0.00 49 1004.3
20260830191546 65 115 0.0 0.0 0.00 0.03 0.00 51 1004.6
20260830190048 65 261 0.0 0.0 0.00 0.03 0.00 48 1004.7
20260830184541 66 147 0.0 4.0 0.00 0.03 0.00 48 1004.6
20260830183147 66 150 0.0 0.0 0.00 0.03 0.00 47 1004.6
20260830181558 66 176 0.0 0.0 0.00 0.03 0.00 49 1004.7
20260830180124 65 155 0.0 0.0 0.00 0.03 0.00 51 1005.0
20260830174618 64 173 0.0 1.0 0.00 0.03 0.00 49 1005.2
20260830173152 64 167 0.0 0.0 0.00 0.03 0.00 51 1005.2
20260830171524 62 229 0.0 0.0 0.00 0.03 0.00 58 1005.4
20260830170020 62 288 0.0 0.0 0.00 0.03 0.00 54 1005.4
20260830164510 62 287 0.0 0.0 0.00 0.03 0.00 57 1005.4
20260830163032 61 257 0.0 0.0 0.00 0.03 0.00 55 1005.6
20260830161524 60 173 0.0 0.0 0.00 0.03 0.00 59 1005.6
20260830160153 59 173 0.0 0.0 0.00 0.03 0.00 58 1005.5
20260830154514 58 173 0.0 0.0 0.00 0.03 0.00 60 1005.4
20260830153040 58 173 0.0 0.0 0.00 0.03 0.00 64 1005.1
20260830151539 58 173 0.0 0.0 0.00 0.03 0.00 63 1004.9
20260830150114 57 173 0.0 0.0 0.00 0.03 0.00 63 1005.0